This is the latest recevied weather packets stored in our database for station/object SA6BET-2. If no packets are shown the sender has not sent any weather packets the latest 10 day(s).
| Time | Temp. | Humidity | Pressure | Rain* | Wind** | Luminosity | Snow |
|---|---|---|---|---|---|---|---|
| 1778182478 | 15° C | 100% | 1015.5 hPa | - | - | - | - |
| 1778181578 | 15.56° C | 100% | 1015.3 hPa | - | - | - | - |
| 1778180678 | 15.56° C | 100% | 1015 hPa | - | - | - | - |
| 1778179777 | 15.56° C | 100% | 1015.1 hPa | - | - | - | - |
| 1778178877 | 15.56° C | 100% | 1015 hPa | - | - | - | - |
| 1778177977 | 15.56° C | 100% | 1014.8 hPa | - | - | - | - |
| 1778177077 | 15.56° C | 100% | 1014.4 hPa | - | - | - | - |
| 1778176177 | 16.11° C | 100% | 1014.2 hPa | - | - | - | - |
| 1778175277 | 16.11° C | 100% | 1014.3 hPa | - | - | - | - |
| 1778174376 | 17.22° C | 100% | 1014.2 hPa | - | - | - | - |
| 1778173476 | 17.22° C | 100% | 1014 hPa | - | - | - | - |
| 1778172570 | 17.22° C | 100% | 1013.9 hPa | - | - | - | - |
| 1778171670 | 17.22° C | 100% | 1013.7 hPa | - | - | - | - |
| 1778170770 | 17.22° C | 100% | 1013.6 hPa | - | - | - | - |
| 1778169870 | 17.22° C | 100% | 1013.4 hPa | - | - | - | - |
| 1778168970 | 17.78° C | 100% | 1013.5 hPa | - | - | - | - |
| 1778168069 | 18.33° C | 100% | 1013.2 hPa | - | - | - | - |
| 1778167169 | 18.33° C | 100% | 1013.4 hPa | - | - | - | - |
| 1778166269 | 18.89° C | 100% | 1013.3 hPa | - | - | - | - |
| 1778165369 | 20.56° C | 100% | 1013.2 hPa | - | - | - | - |
| 1778164512 | 20° C | 100% | 1013.3 hPa | - | - | - | - |
| 1778164469 | 20° C | 100% | 1013.3 hPa | - | - | - | - |
| 1778163569 | 20° C | 100% | 1013.4 hPa | - | - | - | - |
| 1778162668 | 20° C | 100% | 1013.3 hPa | - | - | - | - |
| 1778161768 | 19.44° C | 100% | 1013.3 hPa | - | - | - | - |
* Rain since midnight (hover to see other rain measurements)
** Current wind speed in m/s (hover to see current wind gust speed)